Regional Weather Roundup
Issued by NWS

Home | Current Version | Previous Version | Graphics & Text | Print | Product List | Glossary On
Versions: 1 2 3 4 5 6 7 8 9 10 11 12 13 14 15 16 17 18 19 20 21 22 23 24 25 26 27 28 29 30 31 32 33 34 35 36 37 38 39 40 41 42 43 44 45 46 47 48 49 50
000
ASUS43 KIND 030609
RWRIN

WEATHER ROUNDUP FOR INDIANA
NATIONAL WEATHER SERVICE INDIANAPOLIS IN
200 AM EDT MON AUG 03 2015

NOTE: "FAIR" INDICATES FEW OR NO CLOUDS BELOW 12,000 FEET WITH NO
SIGNIFICANT WEATHER AND/OR OBSTRUCTIONS TO VISIBILITY.

* - STATION DOES NOT REPORT WEATHER SUCH AS PRECIPITATION OR FOG.

+ - STATION NOT QUALITY CONTROLLED BY THE NATIONAL WEATHER SERVICE.
    USE DATA WITH CAUTION...ESPECIALLY DEWPOINT AND RELATIVE
    HUMIDITY OBSERVATIONS.

INZ001>003-010>013-019-020-030700-
NORTHWEST INDIANA

CITY           SKY/WX    TMP DP  RH WIND       PRES   REMARKS
GARY /AIRPORT/ CLOUDY    68  67  96 W5        29.75F
KNOX *+        CLOUDY    63  63 100 W10       29.75F
LA PORTE +     CLOUDY    66  66 100 W15       29.75F
MONTICELLO +   MOCLDY    77  73  86 SW10      29.75S
6HR MIN TEMP:  77; 6HR MAX TEMP:  85;

RENSSELAER +   MOCLDY    73  61  64 N12G23    29.79R
VALPARAISO     LGT RAIN  66  64  93 SW10      29.76F
6HR MIN TEMP:  62; 6HR MAX TEMP:  86; 6HR PCP:  1.42;


$$

LMZ046-743>745-030700-
SOUTHERN LAKE MICHIGAN

STATION/POSITION TIME  TEMP    WIND        PRES    WAVE
                       AIR SEA DIR/SP/G            HT
                 (UTC) (F)     (DEG/KT/KT) (MB)    (FT)
BURNS HARBOR     0523   67     260/ 14/ 26 1007.5F
MICHIGAN CITY    0500   68     210/ 20/ 26   N/A
5NW MICH CITY    0600   69 73  270/ 16/ 21   N/A     4

$$

INZ004-005-014>016-021>024-030700-
NORTH CENTRAL INDIANA

CITY           SKY/WX    TMP DP  RH WIND       PRES   REMARKS
GOSHEN         TSTM      65  61  87 SW15      29.77R
6HR MIN TEMP:  63; 6HR MAX TEMP:  85; 6HR PCP:  1.04;

LOGANSPORT +   PTCLDY    75  64  69 SW13G18   29.78S
PERU/GRISSOM   PTCLDY    77  70  78 SW16      29.77
6HR MIN TEMP:  77; 6HR MAX TEMP:  84;

SOUTH BEND     CLOUDY    66  63  90 SW8       29.76R
6HR MIN TEMP:  65; 6HR MAX TEMP:  88; 6HR PCP:  0.54;

WARSAW +       RAIN      61  61 100 W7G15     29.81F

$$

INZ006>009-017-018-025>027-030700-
NORTHEAST INDIANA

CITY           SKY/WX    TMP DP  RH WIND       PRES   REMARKS
ANGOLA *+      CLOUDY    63  61  94 SW9       29.78F
AUBURN +       HVY RAIN  63  59  88 CALM      29.85R
FORT WAYNE     TSTM      65  60  84 N17G26    29.88R
6HR MIN TEMP:  68; 6HR MAX TEMP:  84; 6HR PCP: TRACE;

HUNTINGTON +   MOCLDY    76  64  66 N17G31    29.87R
6HR MIN TEMP:  76; 6HR MAX TEMP:  84;


$$

INZ028-029-035-036-043>045-051>053-030700-
WEST CENTRAL INDIANA

CITY           SKY/WX    TMP DP  RH WIND       PRES   REMARKS
CRAWFORDSVL +  PTCLDY    73  68  85 SW7         N/A
6HR MIN TEMP:  73; 6HR MAX TEMP:  81;

GREENCASTLE +  PTCLDY    73  64  73 S5        29.84S
LAFAYETTE      PTCLDY    77  71  82 SW6       29.76F
6HR MIN TEMP:  77; 6HR MAX TEMP:  85;

TERRE HAUTE    MOCLDY    77  71  82 S10       29.83F
6HR MIN TEMP:  77; 6HR MAX TEMP:  85;


$$

INZ030>032-037>040-046>048-054>057-064-065-030700-
CENTRAL INDIANA

CITY           SKY/WX    TMP DP  RH WIND       PRES   REMARKS
FISHERS *+     PTCLDY    75  68  78 S8        29.83F
FRANKFORT +    CLEAR     75  71  88 S10G16    29.82R
6HR MIN TEMP:  75; 6HR MAX TEMP:  83;

GREENWOOD *+   MOCLDY    73  61  64 S7        29.85F
INDIANAPOLIS   PTCLDY    75  64  68 SW10      29.82F
6HR MIN TEMP:  75; 6HR MAX TEMP:  83;

-EAGLE CREEK   PTCLDY    76  66  71 SW10      29.82S
6HR MIN TEMP:  76; 6HR MAX TEMP:  84;

KOKOMO *+      PTCLDY    75  66  73 SW17G23   29.79S
6HR MIN TEMP:  75; 6HR MAX TEMP:  84;

MARION +       PTCLDY    73  65  74 SW9       29.81R
MT COMFORT *+  CLEAR     72  63  73 S7        29.84F
SHELBYVILLE    PTCLDY    73  63  70 S9        29.84F
6HR MIN TEMP:  72; 6HR MAX TEMP:  83;

ZIONSVILLE +   PTCLDY    76  65  68 SW10G20   29.83S
6HR MIN TEMP:  76; 6HR MAX TEMP:  84;


$$

INZ033-034-041-042-049-050-058-059-030700-
EAST CENTRAL INDIANA

CITY           SKY/WX    TMP DP  RH WIND       PRES   REMARKS
MUNCIE         PTCLDY    74  63  68 SW13G21   29.82F
6HR MIN TEMP:  74; 6HR MAX TEMP:  82;


$$

INZ060-061-067>069-081>083-085>088-030700-
SOUTHWEST INDIANA

CITY           SKY/WX    TMP DP  RH WIND       PRES   REMARKS
EVANSVILLE     CLEAR     77  67  71 SW7       29.88S
6HR MIN TEMP:  76; 6HR MAX TEMP:  86;

HUNTINGBURG *+ CLEAR     72  63  73 S3        29.89S
6HR MIN TEMP:  72; 6HR MAX TEMP:  82;

WASHINGTON +   CLEAR     74  64  69 S8        29.85F
6HR MIN TEMP:  74; 6HR MAX TEMP:  84;


$$

INZ062-063-066-070>080-084-089>092-030700-
SOUTH CENTRAL AND SOUTHEAST INDIANA

CITY           SKY/WX    TMP DP  RH WIND       PRES   REMARKS
BLOOMINGTON    MOCLDY    75  64  68 SW6       29.86F
6HR MIN TEMP:  74; 6HR MAX TEMP:  83;

MADISON *+     CLEAR     68  61  77 S5        29.90F
NORTH VERNON + CLEAR     70  64  83 S5        29.88
SEYMOUR +      CLEAR     70  63  78 S3        29.87F

$$




USA.gov is the U.S. government's official web portal to all federal, state and local government web resources and services.